St. Charles, IL

11:11 PM CDT on June 28, 2017 (GMT -0500)
Saint Charles County Smartt

Weather History for KSET - April, 2013

Change the Weather History Date:

Monday, April 22, 2013

  Actual Average (KSTL) Record (KSTL)
Temperature  
Mean Temperature 56 °F -  
Max Temperature 71 °F 69 °F 91 °F (1925)
Min Temperature 41 °F 48 °F 31 °F (1936)
Degree Days  
Heating Degree Days 10    
Growing Degree Days 6 (Base 50)    
Moisture  
Dew Point 40 °F    
Average Humidity 56    
Maximum Humidity 82    
Minimum Humidity 32    
Precipitation  
Precipitation 0.00 in - - ()
Sea Level Pressure  
Sea Level Pressure 30.12 in    
Wind  
Wind Speed 9 mph (SE)    
Max Wind Speed 22 mph    
Max Gust Speed 24 mph    
Visibility 10 miles    
Events      
Averages and records for this station are not official NWS values.
T = Trace of Precipitation, MM = Missing Value Source: NWS Daily Summary

Daily Weather History Graph

Daily Weather History Graph

Search for Another Location

Airport or City:

Trip Planner

Search our weather history database for the weather conditions in past years. The results will help you decide how hot, cold, wet, or windy it might be!

Date:

Astronomy

Apr. 22, 2013 Rise Set
Actual Time 6:15 AM CDT 7:45 PM CDT
Civil Twilight 5:46 AM CDT 8:14 PM CDT
Nautical Twilight 5:13 AM CDT 8:47 PM CDT
Astronomical Twilight 4:37 AM CDT 9:23 PM CDT
Moon 4:36 PM CDT (4/22) 4:07 AM CDT (4/22)
Length of Visible Light 14h 27m
Length of Day
13h 30m
Waxing Gibbous, 88% of the Moon is Illuminated
Apr 22
Waxing Gibbous
Apr 25
Full
May 2
Last Quarter
May 9
New
May 17
First Quarter

Hourly Weather History & Observations

Time (CDT) Temp. Windchill Dew Point Humidity Pressure Visibility Wind Dir Wind Speed Gust Speed Precip Events Conditions
12:54 AM 46.9 °F - 39.9 °F 77% 30.27 in 10.0 mi East 8.1 mph - N/A   Clear
1:54 AM 45.0 °F 40.1 °F 39.0 °F 80% 30.26 in 10.0 mi East 9.2 mph - N/A   Clear
2:54 AM 44.1 °F 41.5 °F 37.9 °F 79% 30.24 in 10.0 mi East 4.6 mph - N/A   Clear
3:54 AM 43.0 °F 38.8 °F 37.0 °F 80% 30.24 in 10.0 mi East 6.9 mph - N/A   Clear
4:54 AM 42.1 °F 37.1 °F 36.0 °F 79% 30.23 in 10.0 mi East 8.1 mph - N/A   Clear
5:54 AM 41.0 °F 35.8 °F 36.0 °F 82% 30.22 in 10.0 mi East 8.1 mph - N/A   Clear
6:54 AM 42.1 °F 38.4 °F 37.0 °F 82% 30.23 in 10.0 mi East 5.8 mph - N/A   Clear
7:54 AM 48.9 °F - 39.9 °F 71% 30.22 in 10.0 mi East 5.8 mph - N/A   Clear
8:54 AM 54.0 °F - 37.9 °F 55% 30.22 in 10.0 mi SE 5.8 mph - N/A   Clear
9:54 AM 59.0 °F - 37.0 °F 44% 30.20 in 10.0 mi SSE 6.9 mph - N/A   Clear
10:54 AM 62.1 °F - 37.9 °F 41% 30.19 in 10.0 mi SSE 8.1 mph - N/A   Clear
11:54 AM 66.0 °F - 39.9 °F 38% 30.17 in 10.0 mi SE 9.2 mph - N/A   Clear
12:54 PM 68.0 °F - 41.0 °F 37% 30.14 in 10.0 mi South 9.2 mph - N/A   Clear
1:54 PM 69.1 °F - 39.9 °F 35% 30.10 in 10.0 mi SSE 12.7 mph 20.7 mph N/A   Clear
2:54 PM 70.0 °F - 39.0 °F 32% 30.07 in 10.0 mi SE 13.8 mph 20.7 mph N/A   Clear
3:54 PM 69.1 °F - 41.0 °F 36% 30.03 in 10.0 mi SE 15.0 mph - N/A   Clear
4:54 PM 70.0 °F - 41.0 °F 35% 30.00 in 10.0 mi SE 21.9 mph - N/A   Clear
5:54 PM 69.1 °F - 42.1 °F 38% 29.98 in 10.0 mi SE 18.4 mph - N/A   Clear
6:54 PM 66.9 °F - 42.1 °F 40% 29.97 in 10.0 mi SSE 12.7 mph 24.2 mph N/A   Clear
7:54 PM 64.9 °F - 44.1 °F 47% 29.98 in 10.0 mi SE 12.7 mph - N/A   Clear
8:54 PM 64.0 °F - 45.0 °F 50% 29.99 in 10.0 mi SSE 11.5 mph - N/A   Clear
9:54 PM 63.0 °F - 46.0 °F 54% 30.01 in 10.0 mi SSE 10.4 mph - 0.00 in   Overcast
10:54 PM 62.1 °F - 46.0 °F 56% 30.00 in 10.0 mi SSE 11.5 mph - N/A   Scattered Clouds
11:54 PM 59.0 °F - 46.9 °F 64% 30.01 in 10.0 mi SE 4.6 mph - N/A   Mostly Cloudy